User: anonymous   Login
Location: Bergnershof
(48.9468°N, 10.9431°E)
Time: 22:48:39
(UTC+00:00)
Language:

Cosmos 1844 Rocket - Orbit

View from above orbital plane
View from above orbital plane
View from above satellite
View from above satellite

Ground track
Ground track

The orbit data is extracted from the following two-line orbital elements,

1 17974U 87041B   21207.58845872  .00000186  00000-0  11549-3 0  9995
2 17974  71.0093 348.5429 0016063 263.3810 169.6281 14.17275011769020
Epoch (UTC): 26 July 2021 14:07:22
Eccentricity: 0.0016063
inclination: 71.0093°
perigee height: 823 km
apogee height: 846 km
right ascension of ascending node: 348.5429°
argument of perigee: 263.3810°
revolutions per day: 14.17275011
mean anomaly at epoch: 169.6281°
orbit number at epoch: 76902

The dashed part of the orbit path shows where the satellite is in the earth's shadow,  

DLR